Time,TemperatureF,DewpointF,PressureIn,WindDirection,WindDirectionDegrees,WindSpeedMPH,WindSpeedGustMPH,Humidity,HourlyPrecipIn,Conditions,Clouds,dailyrainin,SoftwareType,DateUTC
2013-09-06 00:02:00,63.0,60.0,30.22,East,79,0.0,0.0,90,0.00,,,0.00,weatherlink.com 1.10,2013-09-06 04:02:00,
2013-09-06 00:17:00,62.6,60.0,30.22,East,79,0.0,0.0,90,0.00,,,0.00,weatherlink.com 1.10,2013-09-06 04:17:00,
2013-09-06 00:32:00,62.2,59.0,30.22,East,79,0.0,0.0,90,0.00,,,0.00,weatherlink.com 1.10,2013-09-06 04:32:00,
2013-09-06 00:47:00,62.1,59.0,30.22,East,79,0.0,0.0,88,0.00,,,0.00,weatherlink.com 1.10,2013-09-06 04:47:00,
2013-09-06 01:02:00,62.0,59.0,30.22,East,79,0.0,0.0,88,0.00,,,0.00,weatherlink.com 1.10,2013-09-06 05:02:00,
2013-09-06 01:17:00,61.6,58.0,30.22,East,79,0.0,0.0,88,0.00,,,0.00,weatherlink.com 1.10,2013-09-06 05:17:00,
2013-09-06 01:32:00,61.3,58.0,30.21,East,79,0.0,0.0,88,0.00,,,0.00,weatherlink.com 1.10,2013-09-06 05:32:00,
2013-09-06 01:47:00,60.8,58.0,30.21,East,79,0.0,0.0,89,0.00,,,0.00,weatherlink.com 1.10,2013-09-06 05:47:00,
2013-09-06 02:02:00,60.6,57.0,30.21,East,79,0.0,0.0,88,0.00,,,0.00,weatherlink.com 1.10,2013-09-06 06:02:00,
2013-09-06 02:17:00,60.5,57.0,30.21,East,79,0.0,0.0,87,0.00,,,0.00,weatherlink.com 1.10,2013-09-06 06:17:00,
2013-09-06 02:32:00,60.8,56.0,30.21,East,79,0.0,0.0,85,0.00,,,0.00,weatherlink.com 1.10,2013-09-06 06:32:00,
2013-09-06 02:47:00,60.2,56.0,30.21,East,79,0.0,0.0,87,0.00,,,0.00,weatherlink.com 1.10,2013-09-06 06:47:00,
2013-09-06 03:02:00,59.6,56.0,30.21,East,79,0.0,0.0,88,0.00,,,0.00,weatherlink.com 1.10,2013-09-06 07:02:00,
2013-09-06 03:17:00,59.2,55.0,30.20,East,79,0.0,0.0,87,0.00,,,0.00,weatherlink.com 1.10,2013-09-06 07:17:00,
2013-09-06 03:32:00,59.8,55.0,30.20,East,79,0.0,0.0,85,0.00,,,0.00,weatherlink.com 1.10,2013-09-06 07:32:00,
2013-09-06 03:47:00,59.8,55.0,30.20,East,79,0.0,0.0,85,0.00,,,0.00,weatherlink.com 1.10,2013-09-06 07:47:00,
2013-09-06 04:02:00,59.1,56.0,30.20,East,79,0.0,0.0,89,0.00,,,0.00,weatherlink.com 1.10,2013-09-06 08:02:00,
2013-09-06 04:17:00,58.8,55.0,30.21,East,79,0.0,0.0,87,0.00,,,0.00,weatherlink.com 1.10,2013-09-06 08:17:00,
2013-09-06 04:32:00,58.4,55.0,30.20,East,79,0.0,0.0,87,0.00,,,0.00,weatherlink.com 1.10,2013-09-06 08:32:00,
2013-09-06 04:47:00,59.0,55.0,30.20,East,79,0.0,0.0,85,0.00,,,0.00,weatherlink.com 1.10,2013-09-06 08:47:00,
2013-09-06 05:02:00,58.6,55.0,30.20,East,79,0.0,0.0,86,0.00,,,0.00,weatherlink.com 1.10,2013-09-06 09:02:00,
2013-09-06 05:17:00,58.3,55.0,30.20,East,79,0.0,0.0,87,0.00,,,0.00,weatherlink.com 1.10,2013-09-06 09:17:00,
2013-09-06 05:33:00,58.2,54.0,30.20,East,79,0.0,0.0,86,0.00,,,0.00,weatherlink.com 1.10,2013-09-06 09:33:00,
2013-09-06 05:48:00,58.1,54.0,30.21,East,79,0.0,0.0,86,0.00,,,0.00,weatherlink.com 1.10,2013-09-06 09:48:00,
2013-09-06 06:03:00,57.9,54.0,30.21,East,79,0.0,0.0,86,0.00,,,0.00,weatherlink.com 1.10,2013-09-06 10:03:00,
2013-09-06 06:18:00,57.6,54.0,30.21,East,79,0.0,0.0,86,0.00,,,0.00,weatherlink.com 1.10,2013-09-06 10:18:00,
2013-09-06 06:33:00,57.6,54.0,30.22,East,79,0.0,0.0,86,0.00,,,0.00,weatherlink.com 1.10,2013-09-06 10:33:00,
2013-09-06 06:48:00,57.4,53.0,30.22,East,79,0.0,0.0,86,0.00,,,0.00,weatherlink.com 1.10,2013-09-06 10:48:00,
2013-09-06 07:03:00,57.6,53.0,30.23,East,79,0.0,0.0,85,0.00,,,0.00,weatherlink.com 1.10,2013-09-06 11:03:00,
2013-09-06 07:18:00,58.2,54.0,30.23,East,79,0.0,0.0,85,0.00,,,0.00,weatherlink.com 1.10,2013-09-06 11:18:00,
2013-09-06 07:33:00,57.6,53.0,30.23,East,79,0.0,0.0,85,0.00,,,0.00,weatherlink.com 1.10,2013-09-06 11:33:00,
2013-09-06 07:48:00,57.5,53.0,30.23,East,79,0.0,0.0,85,0.00,,,0.00,weatherlink.com 1.10,2013-09-06 11:48:00,
2013-09-06 08:03:00,57.8,53.0,30.23,East,79,0.0,0.0,85,0.00,,,0.00,weatherlink.com 1.10,2013-09-06 12:03:00,
2013-09-06 08:18:00,58.5,54.0,30.24,East,79,0.0,0.0,85,0.00,,,0.00,weatherlink.com 1.10,2013-09-06 12:18:00,
2013-09-06 08:33:00,59.8,55.0,30.24,East,79,0.0,0.0,85,0.00,,,0.00,weatherlink.com 1.10,2013-09-06 12:33:00,
2013-09-06 08:48:00,60.2,56.0,30.25,East,79,0.0,0.0,85,0.00,,,0.00,weatherlink.com 1.10,2013-09-06 12:48:00,
2013-09-06 09:03:00,60.7,56.0,30.25,East,79,0.0,0.0,85,0.00,,,0.00,weatherlink.com 1.10,2013-09-06 13:03:00,
2013-09-06 09:18:00,62.7,58.0,30.25,East,79,0.0,0.0,85,0.00,,,0.00,weatherlink.com 1.10,2013-09-06 13:18:00,
2013-09-06 09:33:00,64.0,60.0,30.25,East,79,0.0,0.0,85,0.00,,,0.00,weatherlink.com 1.10,2013-09-06 13:33:00,
2013-09-06 09:48:00,65.1,61.0,30.25,East,79,0.0,0.0,85,0.00,,,0.00,weatherlink.com 1.10,2013-09-06 13:48:00,
2013-09-06 10:03:00,66.4,62.0,30.25,East,79,0.0,0.0,84,0.00,,,0.00,weatherlink.com 1.10,2013-09-06 14:03:00,
2013-09-06 10:18:00,67.9,65.0,30.25,NNW,339,0.0,0.0,91,0.00,,,0.00,weatherlink.com 1.10,2013-09-06 14:18:00,
2013-09-06 10:33:00,68.5,65.0,30.25,NE,54,0.0,0.0,89,0.00,,,0.00,weatherlink.com 1.10,2013-09-06 14:33:00,
2013-09-06 10:48:00,69.7,66.0,30.25,NNW,338,0.0,0.0,87,0.00,,,0.00,weatherlink.com 1.10,2013-09-06 14:48:00,
2013-09-06 11:03:00,70.7,64.0,30.25,NW,307,0.0,0.0,80,0.00,,,0.00,weatherlink.com 1.10,2013-09-06 15:03:00,
2013-09-06 11:18:00,71.5,65.0,30.25,WNW,303,0.0,0.0,81,0.00,,,0.00,weatherlink.com 1.10,2013-09-06 15:18:00,
2013-09-06 11:33:00,72.7,67.0,30.25,NNW,329,0.0,0.0,81,0.00,,,0.00,weatherlink.com 1.10,2013-09-06 15:33:00,
2013-09-06 11:48:00,73.2,65.0,30.25,NW,315,0.0,0.0,76,0.00,,,0.00,weatherlink.com 1.10,2013-09-06 15:48:00,
2013-09-06 12:03:00,73.6,65.0,30.25,SSW,210,0.0,0.0,75,0.00,,,0.00,weatherlink.com 1.10,2013-09-06 16:03:00,
2013-09-06 12:18:00,74.2,66.0,30.24,WSW,257,0.0,0.0,76,0.00,,,0.00,weatherlink.com 1.10,2013-09-06 16:18:00,
2013-09-06 12:33:00,75.1,66.0,30.24,WNW,298,0.0,0.0,74,0.00,,,0.00,weatherlink.com 1.10,2013-09-06 16:33:00,
2013-09-06 12:49:00,76.7,68.0,30.24,SSW,205,0.0,0.0,74,0.00,,,0.00,weatherlink.com 1.10,2013-09-06 16:49:00,
2013-09-06 13:04:00,78.2,66.0,30.23,WNW,298,0.0,0.0,67,0.00,,,0.00,weatherlink.com 1.10,2013-09-06 17:04:00,
2013-09-06 13:19:00,79.1,66.0,30.23,ENE,58,0.0,0.0,64,0.00,,,0.00,weatherlink.com 1.10,2013-09-06 17:19:00,
2013-09-06 13:34:00,80.2,69.0,30.22,WNW,295,0.0,0.0,68,0.00,,,0.00,weatherlink.com 1.10,2013-09-06 17:34:00,
2013-09-06 13:49:00,82.2,69.0,30.22,SSW,200,0.0,0.0,64,0.00,,,0.00,weatherlink.com 1.10,2013-09-06 17:49:00,
2013-09-06 14:04:00,83.7,68.0,30.21,NE,46,0.0,0.0,60,0.00,,,0.00,weatherlink.com 1.10,2013-09-06 18:04:00,
2013-09-06 14:19:00,84.6,69.0,30.21,East,91,0.0,0.0,59,0.00,,,0.00,weatherlink.com 1.10,2013-09-06 18:19:00,
2013-09-06 14:34:00,83.8,67.0,30.20,SW,229,0.0,0.0,58,0.00,,,0.00,weatherlink.com 1.10,2013-09-06 18:34:00,
2013-09-06 14:49:00,84.1,68.0,30.20,WSW,240,0.0,0.0,59,0.00,,,0.00,weatherlink.com 1.10,2013-09-06 18:49:00,
2013-09-06 15:04:00,82.5,69.0,30.20,WSW,245,0.0,0.0,63,0.00,,,0.00,weatherlink.com 1.10,2013-09-06 19:04:00,
2013-09-06 15:19:00,81.3,68.0,30.19,SSW,200,0.0,0.0,65,0.00,,,0.00,weatherlink.com 1.10,2013-09-06 19:19:00,
2013-09-06 15:34:00,81.9,69.0,30.19,WNW,288,0.0,0.0,65,0.00,,,0.00,weatherlink.com 1.10,2013-09-06 19:34:00,
2013-09-06 15:49:00,81.8,70.0,30.19,WSW,252,0.0,0.0,67,0.00,,,0.00,weatherlink.com 1.10,2013-09-06 19:49:00,
2013-09-06 16:04:00,83.0,69.0,30.18,West,276,0.0,0.0,63,0.00,,,0.00,weatherlink.com 1.10,2013-09-06 20:04:00,
2013-09-06 16:19:00,82.8,67.0,30.18,West,279,0.0,0.0,60,0.00,,,0.00,weatherlink.com 1.10,2013-09-06 20:19:00,
2013-09-06 16:34:00,83.3,71.0,30.17,West,262,0.0,0.0,66,0.00,,,0.00,weatherlink.com 1.10,2013-09-06 20:34:00,
2013-09-06 16:49:00,83.4,68.0,30.17,ESE,122,0.0,0.0,61,0.00,,,0.00,weatherlink.com 1.10,2013-09-06 20:49:00,
2013-09-06 17:04:00,83.9,68.0,30.16,West,269,0.0,0.0,59,0.00,,,0.00,weatherlink.com 1.10,2013-09-06 21:04:00,
2013-09-06 17:19:00,82.8,71.0,30.16,SW,226,0.0,0.0,67,0.00,,,0.00,weatherlink.com 1.10,2013-09-06 21:19:00,
2013-09-06 17:34:00,83.1,71.0,30.16,SW,234,0.0,0.0,67,0.00,,,0.00,weatherlink.com 1.10,2013-09-06 21:34:00,
2013-09-06 17:49:00,81.8,71.0,30.16,WSW,238,0.0,0.0,69,0.00,,,0.00,weatherlink.com 1.10,2013-09-06 21:49:00,
2013-09-06 18:04:00,81.1,70.0,30.16,SW,226,0.0,0.0,68,0.00,,,0.00,weatherlink.com 1.10,2013-09-06 22:04:00,
2013-09-06 18:19:00,81.0,70.0,30.16,SW,226,0.0,0.0,69,0.00,,,0.00,weatherlink.com 1.10,2013-09-06 22:19:00,
2013-09-06 18:34:00,78.7,68.0,30.16,SW,221,0.0,0.0,69,0.00,,,0.00,weatherlink.com 1.10,2013-09-06 22:34:00,
2013-09-06 18:49:00,77.1,67.0,30.16,SW,221,0.0,0.0,72,0.00,,,0.00,weatherlink.com 1.10,2013-09-06 22:49:00,
2013-09-06 19:04:00,77.2,69.0,30.16,SW,221,0.0,0.0,75,0.00,,,0.00,weatherlink.com 1.10,2013-09-06 23:04:00,
2013-09-06 19:19:00,75.9,69.0,30.16,SW,221,0.0,0.0,80,0.00,,,0.00,weatherlink.com 1.10,2013-09-06 23:19:00,
2013-09-06 19:34:00,74.6,68.0,30.16,SW,221,0.0,0.0,79,0.00,,,0.00,weatherlink.com 1.10,2013-09-06 23:34:00,
2013-09-06 19:49:00,73.7,68.0,30.16,SW,221,0.0,0.0,81,0.00,,,0.00,weatherlink.com 1.10,2013-09-06 23:49:00,
2013-09-06 20:04:00,72.7,67.0,30.16,SW,221,0.0,0.0,83,0.00,,,0.00,weatherlink.com 1.10,2013-09-07 00:04:00,
2013-09-06 20:19:00,72.2,68.0,30.16,SW,221,0.0,0.0,85,0.00,,,0.00,weatherlink.com 1.10,2013-09-07 00:19:00,
2013-09-06 20:34:00,71.8,67.0,30.17,SW,221,0.0,0.0,85,0.00,,,0.00,weatherlink.com 1.10,2013-09-07 00:34:00,
2013-09-06 20:49:00,71.2,67.0,30.17,SW,221,0.0,0.0,86,0.00,,,0.00,weatherlink.com 1.10,2013-09-07 00:49:00,
2013-09-06 21:05:00,70.4,66.0,30.17,SW,221,0.0,0.0,87,0.00,,,0.00,weatherlink.com 1.10,2013-09-07 01:05:00,
2013-09-06 21:19:00,69.9,66.0,30.18,East,91,0.0,0.0,88,0.00,,,0.00,weatherlink.com 1.10,2013-09-07 01:19:00,
2013-09-06 21:34:00,69.9,67.0,30.18,East,79,0.0,0.0,89,0.00,,,0.00,weatherlink.com 1.10,2013-09-07 01:34:00,
2013-09-06 21:49:00,69.5,66.0,30.19,East,79,0.0,0.0,89,0.00,,,0.00,weatherlink.com 1.10,2013-09-07 01:49:00,
2013-09-06 22:04:00,68.8,66.0,30.19,East,79,0.0,0.0,90,0.00,,,0.00,weatherlink.com 1.10,2013-09-07 02:04:00,
2013-09-06 22:19:00,68.0,65.0,30.19,East,79,0.0,0.0,90,0.00,,,0.00,weatherlink.com 1.10,2013-09-07 02:19:00,
2013-09-06 22:34:00,67.3,64.0,30.20,East,79,0.0,0.0,90,0.00,,,0.00,weatherlink.com 1.10,2013-09-07 02:34:00,
2013-09-06 22:49:00,66.6,64.0,30.20,East,79,0.0,0.0,90,0.00,,,0.00,weatherlink.com 1.10,2013-09-07 02:49:00,
2013-09-06 23:04:00,66.2,64.0,30.20,East,79,0.0,0.0,91,0.00,,,0.00,weatherlink.com 1.10,2013-09-07 03:04:00,
2013-09-06 23:19:00,65.8,63.0,30.20,East,79,0.0,0.0,91,0.00,,,0.00,weatherlink.com 1.10,2013-09-07 03:19:00,
2013-09-06 23:34:00,65.4,63.0,30.20,East,79,0.0,0.0,91,0.00,,,0.00,weatherlink.com 1.10,2013-09-07 03:34:00,
2013-09-06 23:49:00,65.4,63.0,30.20,East,79,0.0,0.0,91,0.00,,,0.00,weatherlink.com 1.10,2013-09-07 03:49:00,